Weather History for Fort Lewis, WA

Change the Weather History Date:

Tuesday, October 23, 2012

  Actual Average Record
Temperature  
Mean Temperature 45 °F -  
Max Temperature 51 °F 56 °F 71 °F (2007)
Min Temperature 39 °F 38 °F 35 °F (2006)
Degree Days  
Heating Degree Days 20    
Moisture  
Dew Point 38 °F    
Average Humidity 79    
Maximum Humidity 95    
Minimum Humidity 61    
Precipitation  
Precipitation 0.00 in - - ()
Sea Level Pressure  
Sea Level Pressure 29.81 in    
Wind  
Wind Speed 7 mph (SE)    
Max Wind Speed 17 mph    
Max Gust Speed 25 mph    
Visibility 10 miles    
Events      
Averages and records for this station are not official NWS values.
T = Trace of Precipitation, MM = Missing Value Source: NWS Daily Summary

Daily Weather History Graph

Daily Weather History Graph

Search for Another Location

Airport:

Trip Planner

Search our weather history database for the weather conditions in past years. The results will help you decide how hot, cold, wet, or windy it might be!

Date:

Astronomy

Oct. 23, 2012 Rise Set
Actual Time 7:40 AM PDT 6:07 PM PDT
Civil Twilight 7:09 AM PDT 6:38 PM PDT
Nautical Twilight 6:33 AM PDT 7:14 PM PDT
Astronomical Twilight 5:58 AM PDT 7:49 PM PDT
Moon 3:14 PM PDT (10/23) 1:16 AM PDT (10/23)
Length of Visible Light 11h 29m
Length of Day
10h 26m
Waxing Gibbous, 67% of the Moon is Illuminated
Oct 23
Waxing Gibbous
Oct 29
Full
Nov 6
Last Quarter
Nov 13
New
Nov 20
First Quarter

Hourly Weather History & Observations

Time (PDT) Temp. Windchill Dew Point Humidity Pressure Visibility Wind Dir Wind Speed Gust Speed Precip Events Conditions
12:58 AM 41.0 °F 35.2 °F 39.0 °F 93% 29.68 in 10.0 mi SE 9.2 mph - N/A   Overcast
1:58 AM 41.2 °F 36.6 °F 39.0 °F 92% 29.70 in 10.0 mi SSE 6.9 mph - N/A   Overcast
2:58 AM 41.7 °F 36.7 °F 39.2 °F 91% 29.72 in 10.0 mi SSE 8.1 mph - N/A   Partly Cloudy
3:58 AM 41.0 °F 35.8 °F 39.2 °F 93% 29.73 in 10.0 mi SSE 8.1 mph - N/A   Scattered Clouds
4:58 AM 40.3 °F 35.5 °F 39.0 °F 95% 29.74 in 10.0 mi SSE 6.9 mph - N/A   Scattered Clouds
5:58 AM 41.9 °F 39.0 °F 40.1 °F 93% 29.76 in 10.0 mi SSE 4.6 mph - N/A   Overcast
6:58 AM 41.5 °F - 39.0 °F 91% 29.78 in 10.0 mi South 2.3 mph - N/A   Overcast
7:58 AM 40.5 °F 36.5 °F 37.8 °F 90% 29.79 in 10.0 mi South 5.8 mph - N/A   Mostly Cloudy
8:58 AM 39.2 °F 37.0 °F 37.4 °F 93% 29.81 in 10.0 mi SE 3.5 mph - N/A   Scattered Clouds
9:58 AM 44.4 °F 40.5 °F 39.0 °F 81% 29.82 in 10.0 mi SSE 6.9 mph - N/A   Mostly Cloudy
10:58 AM 46.6 °F - 38.8 °F 74% 29.83 in 10.0 mi ESE 3.5 mph - N/A   Partly Cloudy
11:58 AM 51.1 °F - 39.6 °F 65% 29.83 in 10.0 mi SSE 12.7 mph 21.9 mph N/A   Overcast
12:58 PM 50.2 °F - 37.6 °F 62% 29.84 in 10.0 mi SSE 13.8 mph - N/A   Mostly Cloudy
1:58 PM 51.3 °F - 38.3 °F 61% 29.84 in 10.0 mi SSE 17.3 mph 25.3 mph N/A   Mostly Cloudy
2:58 PM 51.3 °F - 38.3 °F 61% 29.85 in 10.0 mi South 10.4 mph - N/A   Mostly Cloudy
3:58 PM 50.0 °F - 37.6 °F 62% 29.86 in 10.0 mi South 11.5 mph - N/A   Mostly Cloudy
4:58 PM 48.9 °F - 37.2 °F 64% 29.86 in 10.0 mi South 10.4 mph - N/A   Partly Cloudy
5:58 PM 47.1 °F - 37.6 °F 69% 29.87 in 10.0 mi SSE 4.6 mph - N/A   Mostly Cloudy
6:58 PM 45.7 °F 43.4 °F 37.0 °F 72% 29.87 in 10.0 mi Variable 4.6 mph - N/A   Mostly Cloudy
7:58 PM 42.4 °F - 38.8 °F 87% 29.87 in 10.0 mi NE 2.3 mph - N/A   Mostly Cloudy
8:58 PM 43.7 °F 41.1 °F 37.6 °F 79% 29.87 in 10.0 mi SE 4.6 mph - N/A   Mostly Cloudy
9:58 PM 44.4 °F 42.9 °F 37.2 °F 76% 29.87 in 10.0 mi SE 3.5 mph - N/A   Mostly Cloudy
10:58 PM 45.5 °F - 36.9 °F 72% 29.87 in 10.0 mi East 2.3 mph - N/A   Overcast
11:58 PM 44.2 °F 42.7 °F 38.7 °F 81% 29.87 in 10.0 mi NE 3.5 mph - N/A   Overcast